Location: Gerlach
(40.6516°N, 119.3568°W)
Time: 01:56:25
(UTC-08:00)

Courier 1B - All Passes

Search period start: 28 January 2023 00:00
Search period end: 07 February 2023 00:00
Orbit: 962 x 1209 km, 28.3° (Epoch: 27 January)

Date Brightness Start Highest point End Pass type
(mag) Time Alt. Az. Time Alt. Az. Time Alt. Az.
28 Jan - 14:09:38 10° SSW 14:13:52 18° SSE 14:18:08 10° ESE daylight
28 Jan - 16:01:39 10° SW 16:06:57 27° S 16:12:23 10° ESE daylight
28 Jan - 17:55:03 10° WSW 18:00:09 24° S 18:05:25 10° SE visible
28 Jan - 19:50:27 10° SW 19:53:14 13° SSW 19:56:05 10° S visible
29 Jan - 13:16:51 10° SSW 13:20:22 15° SSE 13:23:53 10° SE daylight
29 Jan - 15:08:13 10° SW 15:13:24 26° S 15:18:38 10° ESE daylight
29 Jan - 17:01:21 10° WSW 17:06:35 26° S 17:11:56 10° SE daylight
29 Jan - 18:55:56 10° SW 18:59:42 16° SSW 19:03:32 10° SSE visible
30 Jan - 12:24:34 10° S 12:26:53 12° SSE 12:29:10 10° SE daylight
30 Jan - 14:14:53 10° SW 14:19:52 23° S 14:24:50 10° ESE daylight
30 Jan - 16:07:43 10° WSW 16:13:01 27° S 16:18:23 10° SE daylight
30 Jan - 18:01:49 10° WSW 18:06:09 19° SSW 18:10:35 10° SSE visible
31 Jan - 13:21:38 10° SSW 13:26:20 21° SSE 13:30:59 10° ESE daylight
31 Jan - 15:14:09 10° SW 15:19:28 27° S 15:24:49 10° SE daylight
31 Jan - 17:07:54 10° WSW 17:12:37 21° SSW 17:17:25 10° SSE daylight
01 Feb - 12:28:31 10° SSW 12:32:49 18° SSE 12:37:01 10° ESE daylight
01 Feb - 14:20:36 10° SW 14:25:55 27° S 14:31:12 10° ESE daylight
01 Feb - 16:14:04 10° WSW 16:19:04 24° S 16:24:07 10° SE daylight
01 Feb - 18:09:32 10° SW 18:12:05 12° SSW 18:14:40 10° S visible
02 Feb - 11:35:38 10° SSW 11:39:17 15° SSE 11:42:50 10° SE daylight
02 Feb - 13:27:06 10° SW 13:32:22 25° S 13:37:32 10° ESE daylight
02 Feb - 15:20:20 10° WSW 15:25:32 26° S 15:30:44 10° SE daylight
02 Feb - 17:14:57 10° SW 17:18:35 16° SSW 17:22:15 10° SSE daylight
03 Feb - 10:43:16 10° S 10:45:45 12° SSE 10:48:12 10° SE daylight
03 Feb - 12:33:40 10° SW 12:38:48 24° S 12:43:49 10° ESE daylight
03 Feb - 14:26:37 10° WSW 14:31:59 27° S 14:37:17 10° SE daylight
03 Feb - 16:20:47 10° WSW 16:25:05 19° SSW 16:29:23 10° SSE daylight
04 Feb - 11:40:19 10° SSW 11:45:15 21° SSE 11:50:02 10° ESE daylight
04 Feb - 13:32:57 10° SW 13:38:25 28° S 13:43:47 10° ESE daylight
04 Feb - 15:26:47 10° WSW 15:31:33 22° SSW 15:36:18 10° SE daylight
05 Feb - 10:47:07 10° SSW 10:51:40 19° SSE 10:56:06 10° ESE daylight
05 Feb - 12:39:17 10° SW 12:44:51 27° S 12:50:13 10° ESE daylight
05 Feb - 14:32:53 10° WSW 14:38:02 24° S 14:43:05 10° SE daylight
05 Feb - 16:28:21 10° SW 16:31:00 13° SSW 16:33:39 10° S daylight
06 Feb - 09:54:08 10° SSW 09:58:06 16° SSE 10:01:56 10° SE daylight
06 Feb - 11:45:41 10° SW 11:51:16 26° S 11:56:37 10° ESE daylight
06 Feb - 13:39:02 10° WSW 13:44:28 27° S 13:49:46 10° SE daylight
06 Feb - 15:33:43 10° WSW 15:37:31 16° SSW 15:41:17 10° SSE daylight
